Other Public Products
Issued by NWS Grand Forks, ND

Home | Current Version | Previous Version | Graphics & Text | Print | Product List | Glossary On
Versions: 1 2 3 4 5 6 7 8 9 10 11 12 13 14 15 16 17 18 19 20 21 22 23 24 25 26 27 28 29 30 31 32 33 34 35 36 37 38 39 40 41 42 43 44 45 46 47 48 49 50
000
FPUS83 KFGF 231410
OPUFGF
PRAIRIE TO PINES WEATHER ROUNDUP
NATIONAL WEATHER SERVICE EASTERN NORTH DAKOTA/GRAND FORKS ND
900 AM CDT WED MAY 23 2018

 **SATELLITE DATA USED TO AUGMENT SKY COVER AT AUTOMATED STATIONS**
 *****  WEATHER ACROSS EASTERN NORTH DAKOTA  *****

CITY           SKY/WX    TMP DP  RH WIND       PRES   REMARKS
GRAND FORKS    PTSUNNY   69  59  70 S13       30.03R
GRND FORKS AFB FAIR      69  59  69 S10       30.03S
GRND FORKS NWS   N/A     70  59  67 S9        30.01R
BUXTON           N/A     69  63  81 S10         N/A
DEVILS LAKE    CLOUDY    63  57  81 SE10      30.00S
FARGO          FAIR      70  60  70 S14G24    30.01F
WAHPETON ARPT  FAIR      68  55  64 SE14      30.01F
$$

 *****  WEATHER ACROSS CENTRAL AND WESTERN NORTH DAKOTA  *****

CITY           SKY/WX    TMP DP  RH WIND       PRES   REMARKS
JAMESTOWN      FAIR      68  60  75 E13       29.96F
BISMARCK       FAIR      65  61  87 E7        29.90F
MINOT          PTSUNNY   67  59  75 NE6       29.94F
MINOT AFB      FAIR      67  56  67 SE10      29.94S
GARRISON         N/A     65  59  81 E10       29.92F
WILLISTON      PTSUNNY   68  57  68 N6        29.91F
DICKINSON      FAIR      62  57  83 NE8       29.88F
HETTINGER      CLOUDY    61  58  90 SE7       29.94R
$$

 *****  OTHER OBSERVATIONS NORTHEAST NORTH DAKOTA  *****

CITY           SKY/WX    TMP DP  RH WIND       PRES   REMARKS
WALHALLA       FAIR      72  59  64 S12       30.01F
LANGDON        FAIR      72  61  68 SE14      30.03S
CAVALIER         N/A     70  59  68 S14       30.02F
GRAFTON        FAIR      72  59  64 S14       30.05S
CANDO          CLOUDY    68  59  73 SE14      30.01F
FORT TOTTEN      N/A     66  58  76 S9        29.95S
ROLLA          FAIR      68  57  68 SE7       30.00F
RUGBY          NOT AVBL
 ***** THE ABOVE OBSERVATIONS ARE NON NWS ARE NOT QUALITY
        CONTROLLED AND MAY MIS-REPORT RAIN FOR SNOW...
$$

 *****  OTHER OBSERVATIONS SOUTHEAST NORTH DAKOTA *****

CITY           SKY/WX    TMP DP  RH WIND       PRES   REMARKS
COOPERSTOWN    FAIR      68  59  73 SE10      30.01F
VALLEY CITY    FAIR      66  66 100 SE7       30.01F
OAKES            N/A     68  64  88 E10       29.94R
GWINNER          N/A     68  59  73 E18       29.94F
SHEYENNE NWR     N/A     69  61  76 E9        29.95S
BUFFALO          N/A     66  56  70 W10         N/A
WYNDMERE       NOT AVBL
 ***** THE ABOVE OBSERVATIONS ARE NON NWS ARE NOT QUALITY
       CONTROLLED AND MAY MIS-REPORT RAIN FOR SNOW...
$$

  *****  WEATHER ACROSS NORTHERN MINNESOTA  *****

CITY           SKY/WX    TMP DP  RH WIND       PRES   REMARKS
FLAG ISLAND    FAIR      61  55  82 SE6       30.09S
WARROAD        FAIR      66  61  82 CALM      30.10R
ROSEAU         FAIR      70  61  73 S5        30.08S
HALLOCK        FAIR      72  59  64 S10       30.04S
THF RVR FALLS  FAIR      70  58  65 S12       30.08R
HALSTAD          N/A     71  59  64 S13         N/A
FOSSTON        FAIR      70  55  60 S10       30.08F
BAUDETTE       FAIR      71  58  63 S5        30.10R
WASKISH          N/A     72  57  60 S6        30.10F
CROOKSTON      FAIR      72  57  60 S10       30.05S
$$
  *****  WEATHER ACROSS CENTRAL AND WEST MINNESOTA  *****

CITY           SKY/WX    TMP DP  RH WIND       PRES   REMARKS
BEMIDJI        FAIR      66  57  73 SE5       30.10F
PARK RAPIDS    FAIR      67  59  75 SE7       30.09F
WADENA         FAIR      66  59  77 S3        30.08F
DETROIT LAKES  FAIR      66  59  77 SE7       30.07F
MOORHEAD       FAIR      70  59  68 S16       30.03F
FERGUS FALLS   FAIR      68  61  77 SE9       30.01F
ELBOW LAKE     FAIR      65  60  85 SE7       30.05F
MORRIS MN      FAIR      66  61  82 E5        30.04F
STAPLES        FAIR      66  57  72 S3        30.08F
WHEATON        LGT RAIN  63  59  88 E5        30.02F
$$
  *****  WEATHER ELSEWHERE ACROSS MINNESOTA  *****

CITY           SKY/WX    TMP DP  RH WIND       PRES   REMARKS
DULUTH         FAIR      71  56  58 W6        30.15S
INTRNTL FALLS  FAIR      70  56  61 SW5       30.11F
ELY            FAIR      70  54  56 CALM      30.15S
CLOQUET        FAIR      70  54  56 CALM      30.14F
BRAINERD       FAIR      70  57  63 SE8       30.10F
HIBBING        FAIR      66  55  67 VRB3      30.14F
ALEXANDRIA     FAIR      68  60  75 SE6       30.08F
SAINT CLOUD    FAIR      68  60  75 SE10      30.07F
MINNEAPOLIS    PTSUNNY   67  61  81 SE10      30.09F
$$

  *****  WEATHER ACROSS SOUTH DAKOTA  *****

CITY           SKY/WX    TMP DP  RH WIND       PRES   REMARKS
SIOUX FALLS    PTSUNNY   72  65  78 SE8G23    30.02R
BROOKINGS      PTSUNNY   67  62  84 SE18      30.03S
WATERTOWN      FAIR      68  63  84 SE14G22   30.02F
HURON          PTSUNNY   66  63  90 NE5       29.98R
SISSETON         N/A     63  61  93 S10       29.97F
ABERDEEN       CLOUDY    67  63  87 W24G38    30.04R
MITCHELL       FAIR      73  65  75 SE13      29.96S
PIERRE         FAIR      68  63  84 SE16      29.87S
MOBRIDGE       FAIR      67  63  87 E15       29.89R
RAPID CITY     CLOUDY    61  58  90 CALM      29.93S
$$

  *****  SOME WEATHER IN NEARBY STATES *****

CITY           SKY/WX    TMP DP  RH WIND       PRES   REMARKS
GLASGOW MT     FAIR      63  54  72 E5        29.89F
GREAT FALLS MT CLOUDY    55  48  77 SW6       29.94S
CHEYENNE WY    FAIR      55  47  74 S12       30.06F
SCOTTSBLUFF NE FAIR      56  56 100 NW10      29.98F
OMAHA NE       FAIR      76  66  71 S14       30.06R
DES MOINES IA  FAIR      73  65  75 SE8       30.12R
DAVENPORT IA   FAIR      68  60  75 VRB6      30.21R
CHICAGO IL     FAIR      65  57  75 CALM      30.20R HAZE
EAU CLAIRE WI  PTSUNNY   64  58  80 CALM      30.15F
LA CROSSE WI   CLOUDY    61  58  90 SE5       30.17S
$$

  *****  SOME NATIONAL WEATHER *****

CITY           SKY/WX    TMP DP  RH WIND       PRES   REMARKS
LA GUARDIA NY  CLOUDY    68  60  75 NW7       29.92S
RALEIGH NC     PTSUNNY   78  71  79 SW14      30.07S
ATLANTA GA     CLOUDY    73  68  84 N6        30.11R FOG
NEW ORLEANS LA FAIR      84  72  67 CALM      30.06R
OKLAHOMA CITY  PTSUNNY   74  68  81 S10       30.08R
ALBUQUERQUE NM FAIR      62  36  37 N5        30.10R
SALT LAKE CITY PTSUNNY   57  45  62 SE10      29.96R
LOS ANGELES CA CLOUDY    60  54  80 W7        29.96R
BOISE ID       FAIR      61  51  70 NW5       29.85R
SEATTLE WA     FAIR      61  48  62 CALM      29.83R
$$

*** WEATHER ACROSS MANITOBA...SASKATCHEWAN AND ONTARIO ***
                ***ONTARIO***

CITY           SKY/WX    TMP DP  RH WIND       PRES   REMARKS
GERALDTON      MOSUNNY   48  36  61 SE7       30.17S
THUNDER BAY    PTSUNNY   57  43  58 E8        30.15S
SIOUX LOOKOUT  CLOUDY    61  48  63 S3        30.11R
TORONTO        SUNNY     68  50  52 NW10      30.05S
BIG TROUT LK   SUNNY     45  32  61 S5        30.12F
PICKLE LAKE    MOSUNNY   55  39  54 E8        30.10S
DRYDEN         SUNNY     66  48  52 SW5       30.11F
KENORA         MOSUNNY   70  54  56 SW6       30.10S
$$
                *** MANITOBA***

CITY           SKY/WX    TMP DP  RH WIND       PRES   REMARKS
BRANDON        MOSUNNY   68  55  64 SE9       29.98F
DAUPHIN        SUNNY     64  48  55 VRB2      29.99S
ISLAND LAKE    MOSUNNY   54  39  58 SE6       30.06F
PILOT MOUND      N/A     72  55  56 SE12        N/A
THE PAS        SUNNY     63  48  59 SE6       29.98F
THOMPSON       PTSUNNY   55  41  58 SW6       29.98F
WINNIPEG       NOT AVBL
LYNN LAKE      SUNNY     66  46  48 SW10      29.91F
CHURCHILL      PTSUNNY   41  32  70 S18G25    29.76F
GILLAM         PTSUNNY   55  37  50 SW12G18   29.97F
$$
                ***SASKATCHEWAN***

CITY           SKY/WX    TMP DP  RH WIND       PRES   REMARKS
ESTEVAN        MOSUNNY   64  54  68 E9        29.94F
KINDERSLEY     SUNNY     66  45  45 E6        29.93S
LLOYDMINSTER   MOSUNNY   64  46  52 SE5       29.93S
PRINCE ALBERT  MOSUNNY   63  48  59 VRB2      29.98S
REGINA         MOSUNNY   68  50  52 SE8       29.96F
YORKTON        SUNNY     64  50  59 VRB2      29.98S



USA.gov is the U.S. government's official web portal to all federal, state and local government web resources and services.